SAS77K ENGM-EKCH

Flight info

Callsign SAS77K
Flight time 0h 54m
Altitude 33000
Route OKSAT L996 KELIN DCT TOPLA L996 ERNOV
Aircraft MD82/M-SDFGHRWY/C

Departure

Time 2026-05-05 17:09
Airport Oslo-Gardermoen International Airport (ENGM)

Arrival

Time 2026-05-05 18:03
Airport Copenhagen Kastrup Airport (EKCH)
Time Latitude Longitude Altitude Speed Heading
2026-05-05 16:38 60.19453 11.10240 686 ft 0 kts 196°
2026-05-05 16:57 60.19457 11.10243 684 ft 3 kts 196°
2026-05-05 16:57 60.19483 11.10258 686 ft 4 kts 196°
2026-05-05 16:58 60.19503 11.10270 682 ft 4 kts 204°
2026-05-05 16:58 60.19520 11.10297 683 ft 3 kts 240°
2026-05-05 16:58 60.19531 11.10338 682 ft 4 kts 241°
2026-05-05 16:58 60.19544 11.10385 685 ft 4 kts 241°
2026-05-05 16:59 60.19547 11.10395 685 ft 3 kts 241°
2026-05-05 17:02 60.19547 11.10394 685 ft 1 kts 241°
2026-05-05 17:02 60.19534 11.10388 685 ft 3 kts 157°
2026-05-05 17:03 60.19524 11.10470 684 ft 11 kts 99°
2026-05-05 17:03 60.19498 11.10680 679 ft 19 kts 107°
2026-05-05 17:03 60.19453 11.10960 682 ft 21 kts 108°
2026-05-05 17:03 60.19408 11.11231 684 ft 19 kts 146°
2026-05-05 17:04 60.19280 11.11200 683 ft 21 kts 196°
2026-05-05 17:04 60.19140 11.11123 683 ft 21 kts 195°
2026-05-05 17:04 60.18999 11.11040 683 ft 21 kts 197°
2026-05-05 17:04 60.18862 11.10957 683 ft 20 kts 195°
2026-05-05 17:05 60.18728 11.10881 683 ft 20 kts 196°
2026-05-05 17:05 60.18595 11.10804 679 ft 20 kts 196°
2026-05-05 17:05 60.18464 11.10727 679 ft 20 kts 196°
2026-05-05 17:05 60.18333 11.10653 679 ft 20 kts 194°
2026-05-05 17:06 60.18184 11.10566 680 ft 24 kts 196°
2026-05-05 17:06 60.18026 11.10476 680 ft 23 kts 195°
2026-05-05 17:06 60.17872 11.10388 679 ft 23 kts 196°
2026-05-05 17:06 60.17733 11.10398 674 ft 20 kts 119°
2026-05-05 17:07 60.17706 11.10644 678 ft 17 kts 106°
2026-05-05 17:07 60.17686 11.10824 678 ft 8 kts 71°
2026-05-05 17:07 60.17709 11.10861 678 ft 3 kts 14°
2026-05-05 17:07 60.17738 11.10875 678 ft 8 kts 14°
2026-05-05 17:08 60.17882 11.10955 681 ft 45 kts 16°
2026-05-05 17:08 60.18392 11.11249 683 ft 108 kts 15°
2026-05-05 17:08 60.19301 11.11769 683 ft 162 kts 15°
2026-05-05 17:08 60.20468 11.12490 1061 ft 178 kts 20°
2026-05-05 17:09 60.21515 11.13687 1865 ft 172 kts 42°
2026-05-05 17:09 60.22300 11.15500 2571 ft 172 kts 58°
2026-05-05 17:09 60.22647 11.17834 3149 ft 180 kts 83°
2026-05-05 17:09 60.22719 11.20067 3738 ft 177 kts 85°
2026-05-05 17:10 60.22759 11.22079 4117 ft 185 kts 86°
2026-05-05 17:10 60.22793 11.24830 4445 ft 204 kts 88°
2026-05-05 17:10 60.22777 11.27785 4693 ft 226 kts 91°
2026-05-05 17:10 60.22700 11.31219 4834 ft 257 kts 89°
2026-05-05 17:11 60.22941 11.34944 5139 ft 278 kts 74°
2026-05-05 17:11 60.23450 11.38682 5878 ft 282 kts 72°
2026-05-05 17:11 60.23997 11.42542 6657 ft 285 kts 72°
2026-05-05 17:11 60.24521 11.46354 7371 ft 288 kts 76°
2026-05-05 17:12 60.24575 11.50390 8074 ft 293 kts 104°
2026-05-05 17:12 60.23695 11.54056 8768 ft 294 kts 133°
2026-05-05 17:12 60.22093 11.56535 9405 ft 293 kts 159°
2026-05-05 17:12 60.20179 11.57905 10069 ft 293 kts 166°
2026-05-05 17:13 60.18160 11.59145 10275 ft 314 kts 166°
2026-05-05 17:13 60.15970 11.60120 10436 ft 330 kts 181°
2026-05-05 17:13 60.13660 11.59622 10735 ft 340 kts 190°
2026-05-05 17:13 60.11266 11.59697 11294 ft 348 kts 175°
2026-05-05 17:14 60.08861 11.60380 12013 ft 349 kts 174°
2026-05-05 17:14 60.07321 11.60831 12486 ft 350 kts 175°
2026-05-05 17:14 60.04219 11.61700 13360 ft 352 kts 176°
2026-05-05 17:14 60.01784 11.62373 13970 ft 355 kts 177°
2026-05-05 17:15 59.99324 11.63046 14541 ft 358 kts 178°
2026-05-05 17:15 59.96842 11.63704 15121 ft 361 kts 179°
2026-05-05 17:15 59.94348 11.64353 15714 ft 363 kts 180°
2026-05-05 17:15 59.91826 11.64995 16269 ft 366 kts 180°
2026-05-05 17:16 59.89292 11.65625 16815 ft 368 kts 181°
2026-05-05 17:16 59.86740 11.66254 17351 ft 370 kts 182°
2026-05-05 17:16 59.84173 11.66885 17847 ft 374 kts 182°
2026-05-05 17:16 59.81588 11.67530 18374 ft 375 kts 182°
2026-05-05 17:17 59.78988 11.68168 18828 ft 379 kts 183°
2026-05-05 17:17 59.76369 11.68817 19357 ft 379 kts 183°
2026-05-05 17:17 59.73744 11.69473 19855 ft 381 kts 184°
2026-05-05 17:17 59.71105 11.70133 20295 ft 384 kts 184°
2026-05-05 17:18 59.68447 11.70795 20761 ft 386 kts 184°
2026-05-05 17:18 59.65776 11.71459 21201 ft 388 kts 184°
2026-05-05 17:18 59.63096 11.72119 21667 ft 389 kts 185°
2026-05-05 17:18 59.60395 11.72790 22093 ft 392 kts 185°
2026-05-05 17:19 59.57679 11.73463 22496 ft 395 kts 185°
2026-05-05 17:19 59.54949 11.74136 22945 ft 396 kts 185°
2026-05-05 17:19 59.52208 11.74816 23320 ft 399 kts 185°
2026-05-05 17:19 59.49440 11.75507 23648 ft 401 kts 185°
2026-05-05 17:20 59.46673 11.76191 24082 ft 401 kts 185°
2026-05-05 17:20 59.43897 11.76874 24460 ft 404 kts 185°
2026-05-05 17:20 59.41096 11.77559 24812 ft 406 kts 185°
2026-05-05 17:20 59.38283 11.78246 25151 ft 409 kts 185°
2026-05-05 17:21 59.35450 11.78939 25511 ft 411 kts 185°
2026-05-05 17:21 59.32610 11.79638 25894 ft 412 kts 185°
2026-05-05 17:21 59.29753 11.80339 26210 ft 415 kts 184°
2026-05-05 17:22 59.23987 11.81741 26807 ft 420 kts 184°
2026-05-05 17:22 59.21082 11.82447 27134 ft 421 kts 184°
2026-05-05 17:22 59.18165 11.83160 27448 ft 423 kts 184°
2026-05-05 17:22 59.15239 11.83876 27817 ft 424 kts 183°
2026-05-05 17:23 59.12314 11.84590 28168 ft 424 kts 184°
2026-05-05 17:23 59.09421 11.85297 28577 ft 423 kts 183°
2026-05-05 17:23 59.06507 11.86013 29017 ft 421 kts 184°
2026-05-05 17:23 59.03608 11.86721 29463 ft 418 kts 183°
2026-05-05 17:24 59.00691 11.87429 29872 ft 417 kts 183°
2026-05-05 17:24 58.97849 11.88112 30200 ft 416 kts 183°
2026-05-05 17:24 58.94938 11.88808 30496 ft 417 kts 183°
2026-05-05 17:24 58.92063 11.89494 30821 ft 416 kts 183°
2026-05-05 17:25 58.89188 11.90179 31120 ft 416 kts 183°
2026-05-05 17:25 58.87289 11.90631 31270 ft 417 kts 183°
2026-05-05 17:25 58.83428 11.91543 31618 ft 417 kts 183°
2026-05-05 17:25 58.80591 11.92218 31936 ft 416 kts 182°
2026-05-05 17:26 58.77687 11.92915 32224 ft 415 kts 182°
2026-05-05 17:26 58.74863 11.93590 32501 ft 414 kts 182°
2026-05-05 17:26 58.72005 11.94263 32715 ft 415 kts 182°
2026-05-05 17:26 58.69130 11.94934 32830 ft 418 kts 182°
2026-05-05 17:27 58.66224 11.95614 32883 ft 424 kts 182°
2026-05-05 17:27 58.60246 11.97019 32920 ft 436 kts 182°
2026-05-05 17:28 58.54199 11.98444 32926 ft 444 kts 181°
2026-05-05 17:28 58.48083 11.99905 32922 ft 441 kts 181°
2026-05-05 17:29 58.42020 12.01366 32930 ft 437 kts 181°
2026-05-05 17:29 58.35984 12.02793 32933 ft 438 kts 182°
2026-05-05 17:30 58.29922 12.04183 32930 ft 439 kts 182°
2026-05-05 17:30 58.23870 12.05571 32936 ft 439 kts 181°
2026-05-05 17:31 58.17796 12.07084 32938 ft 441 kts 181°
2026-05-05 17:31 58.11720 12.08707 32938 ft 441 kts 180°
2026-05-05 17:32 58.05649 12.10336 32938 ft 440 kts 181°
2026-05-05 17:32 57.99599 12.11934 32944 ft 439 kts 181°
2026-05-05 17:33 57.93555 12.13511 32949 ft 439 kts 181°
2026-05-05 17:33 57.87489 12.15087 32950 ft 440 kts 181°
2026-05-05 17:34 57.81408 12.16660 32949 ft 441 kts 181°
2026-05-05 17:34 57.75343 12.18225 32950 ft 440 kts 181°
2026-05-05 17:35 57.69303 12.19777 32939 ft 439 kts 181°
2026-05-05 17:35 57.63246 12.21332 32941 ft 439 kts 180°
2026-05-05 17:36 57.57262 12.22864 32940 ft 440 kts 180°
2026-05-05 17:36 57.51188 12.24415 32940 ft 441 kts 180°
2026-05-05 17:37 57.46099 12.25711 32940 ft 441 kts 180°
2026-05-05 17:37 57.40020 12.27251 32940 ft 441 kts 180°
2026-05-05 17:38 57.33937 12.28801 32941 ft 441 kts 180°
2026-05-05 17:38 57.27849 12.30339 32940 ft 442 kts 180°
2026-05-05 17:39 57.21756 12.31864 32932 ft 442 kts 180°
2026-05-05 17:39 57.15660 12.33387 32931 ft 442 kts 180°
2026-05-05 17:40 57.09559 12.34891 32807 ft 444 kts 180°
2026-05-05 17:40 57.06469 12.35637 32232 ft 451 kts 179°
2026-05-05 17:40 57.03359 12.36397 31565 ft 449 kts 179°
2026-05-05 17:40 57.00275 12.37167 30865 ft 446 kts 179°
2026-05-05 17:41 56.97212 12.37935 30146 ft 443 kts 179°
2026-05-05 17:41 56.94167 12.38699 29384 ft 440 kts 179°
2026-05-05 17:41 56.91141 12.39453 28604 ft 437 kts 179°
2026-05-05 17:41 56.88138 12.40197 27825 ft 435 kts 179°
2026-05-05 17:42 56.85148 12.40933 27046 ft 432 kts 179°
2026-05-05 17:42 56.82183 12.41659 26286 ft 429 kts 179°
2026-05-05 17:42 56.79233 12.42381 25530 ft 426 kts 179°
2026-05-05 17:42 56.76314 12.43095 24784 ft 422 kts 179°
2026-05-05 17:43 56.73409 12.43806 24037 ft 419 kts 179°
2026-05-05 17:43 56.70533 12.44511 23311 ft 415 kts 179°
2026-05-05 17:43 56.67685 12.45208 22585 ft 411 kts 179°
2026-05-05 17:43 56.64858 12.45895 21858 ft 408 kts 179°
2026-05-05 17:44 56.62057 12.46578 21151 ft 404 kts 179°
2026-05-05 17:44 56.59288 12.47250 20457 ft 400 kts 179°
2026-05-05 17:44 56.56543 12.47914 19753 ft 397 kts 179°
2026-05-05 17:44 56.53817 12.48571 19067 ft 393 kts 179°
2026-05-05 17:45 56.51121 12.49218 18400 ft 389 kts 179°
2026-05-05 17:45 56.48453 12.49861 17723 ft 385 kts 179°
2026-05-05 17:45 56.45811 12.50500 17047 ft 381 kts 179°
2026-05-05 17:45 56.43191 12.51131 16390 ft 377 kts 179°
2026-05-05 17:46 56.40601 12.51748 15715 ft 374 kts 179°
2026-05-05 17:46 56.38040 12.52350 15065 ft 370 kts 178°
2026-05-05 17:46 56.35501 12.52948 14408 ft 366 kts 178°
2026-05-05 17:46 56.32993 12.53543 13758 ft 362 kts 178°
2026-05-05 17:47 56.30502 12.54133 13133 ft 358 kts 178°
2026-05-05 17:47 56.28045 12.54718 12496 ft 354 kts 178°
2026-05-05 17:47 56.25616 12.55298 11883 ft 351 kts 178°
2026-05-05 17:47 56.23210 12.55870 11308 ft 346 kts 177°
2026-05-05 17:48 56.20865 12.56424 11008 ft 332 kts 176°
2026-05-05 17:48 56.18634 12.56954 10924 ft 314 kts 176°
2026-05-05 17:48 56.16526 12.57430 10850 ft 297 kts 180°
2026-05-05 17:48 56.14522 12.57594 10766 ft 280 kts 184°
2026-05-05 17:49 56.12733 12.57607 10633 ft 271 kts 185°
2026-05-05 17:49 56.10787 12.57577 10436 ft 273 kts 185°
2026-05-05 17:49 56.08865 12.57529 10197 ft 278 kts 184°
2026-05-05 17:49 56.06921 12.57483 9938 ft 281 kts 184°
2026-05-05 17:50 56.04958 12.57451 9729 ft 283 kts 183°
2026-05-05 17:50 56.02993 12.57435 9507 ft 282 kts 182°
2026-05-05 17:50 56.01029 12.57436 9280 ft 282 kts 182°
2026-05-05 17:50 55.99070 12.57449 9072 ft 281 kts 181°
2026-05-05 17:51 55.97120 12.57471 8874 ft 280 kts 181°
2026-05-05 17:51 55.95170 12.57498 8675 ft 280 kts 181°
2026-05-05 17:51 55.93227 12.57464 8532 ft 276 kts 189°
2026-05-05 17:51 55.91370 12.56669 8466 ft 276 kts 200°
2026-05-05 17:52 55.89552 12.55591 8386 ft 276 kts 200°
2026-05-05 17:52 55.87730 12.54500 8310 ft 277 kts 200°
2026-05-05 17:52 55.85903 12.53429 8241 ft 276 kts 200°
2026-05-05 17:52 55.84080 12.52386 8164 ft 275 kts 199°
2026-05-05 17:53 55.82271 12.51384 8088 ft 275 kts 199°
2026-05-05 17:53 55.80412 12.50388 8012 ft 275 kts 198°
2026-05-05 17:53 55.78575 12.49431 7939 ft 275 kts 198°
2026-05-05 17:53 55.76739 12.48492 7852 ft 275 kts 198°
2026-05-05 17:54 55.74892 12.47559 7774 ft 276 kts 197°
2026-05-05 17:54 55.73048 12.46634 7742 ft 275 kts 197°
2026-05-05 17:54 55.71192 12.45706 7447 ft 280 kts 197°
2026-05-05 17:54 55.69321 12.44773 7044 ft 279 kts 198°
2026-05-05 17:55 55.67459 12.43851 6647 ft 277 kts 197°
2026-05-05 17:55 55.65620 12.42935 6230 ft 273 kts 197°
2026-05-05 17:55 55.63805 12.42024 5781 ft 270 kts 197°
2026-05-05 17:55 55.62011 12.41123 5349 ft 268 kts 197°
2026-05-05 17:56 55.60271 12.40200 4939 ft 258 kts 204°
2026-05-05 17:56 55.58819 12.38516 4742 ft 244 kts 222°
2026-05-05 17:56 55.57561 12.36601 4467 ft 232 kts 224°
2026-05-05 17:56 55.56381 12.34775 4206 ft 220 kts 224°
2026-05-05 17:57 55.55056 12.33547 3895 ft 218 kts 186°
2026-05-05 17:57 55.53646 12.34226 3620 ft 211 kts 139°
2026-05-05 17:57 55.52609 12.35988 3394 ft 205 kts 134°
2026-05-05 17:57 55.51572 12.37673 3171 ft 198 kts 137°
2026-05-05 17:58 55.50617 12.39370 2842 ft 194 kts 126°
2026-05-05 17:58 55.49995 12.41399 2578 ft 183 kts 99°
2026-05-05 17:58 55.49898 12.43556 2348 ft 173 kts 79°
2026-05-05 17:58 55.50205 12.45492 2275 ft 159 kts 60°
2026-05-05 17:59 55.50734 12.47121 2113 ft 159 kts 59°
2026-05-05 17:59 55.51462 12.48605 1857 ft 159 kts 43°
2026-05-05 17:59 55.52286 12.49774 1612 ft 153 kts 41°
2026-05-05 17:59 55.53105 12.50856 1422 ft 145 kts 41°
2026-05-05 18:00 55.53853 12.51942 1260 ft 134 kts 41°
2026-05-05 18:00 55.54498 12.53105 1074 ft 131 kts 44°
2026-05-05 18:00 55.55153 12.54191 979 ft 129 kts 35°
2026-05-05 18:00 55.55856 12.55152 957 ft 130 kts 36°
2026-05-05 18:01 55.56559 12.56227 910 ft 136 kts 39°
2026-05-05 18:01 55.57268 12.57361 651 ft 138 kts 39°
2026-05-05 18:01 55.57989 12.58461 422 ft 140 kts 38°
2026-05-05 18:01 55.58737 12.59605 183 ft 141 kts 39°
2026-05-05 18:02 55.59482 12.60746 31 ft 142 kts 39°
2026-05-05 18:02 55.60178 12.61820 27 ft 123 kts 42°
2026-05-05 18:02 55.60769 12.62748 30 ft 107 kts 40°
2026-05-05 18:02 55.61240 12.63474 27 ft 68 kts 41°
2026-05-05 18:03 55.61491 12.63819 28 ft 29 kts 11°
2026-05-05 18:03 55.61687 12.63810 25 ft 25 kts 13°
2026-05-05 18:03 55.61813 12.63974 27 ft 17 kts 43°
2026-05-05 18:03 55.61906 12.64096 24 ft 17 kts 27°
2026-05-05 18:04 55.62011 12.64186 26 ft 17 kts 25°
2026-05-05 18:04 55.62107 12.64265 24 ft 15 kts 25°
2026-05-05 18:04 55.62199 12.64342 23 ft 14 kts 26°
2026-05-05 18:04 55.62262 12.64442 23 ft 11 kts 62°
2026-05-05 18:05 55.62292 12.64565 24 ft 12 kts 68°
2026-05-05 18:05 55.62349 12.64672 24 ft 13 kts 17°
2026-05-05 18:05 55.62438 12.64673 24 ft 13 kts 357°
2026-05-05 18:05 55.62533 12.64654 24 ft 13 kts 356°
2026-05-05 18:06 55.62612 12.64653 24 ft 7 kts
2026-05-05 18:06 55.62631 12.64656 25 ft 3 kts
2026-05-05 18:06 55.62659 12.64668 24 ft 5 kts 15°
2026-05-05 18:06 55.62686 12.64657 26 ft 5 kts 329°
2026-05-05 18:07 55.62694 12.64636 27 ft 1 kts 281°
2026-05-05 18:07 55.62698 12.64597 24 ft 5 kts 281°
2026-05-05 18:07 55.62698 12.64593 24 ft 0 kts 281°